Weather History for McCall, ID

Change the Weather History Date:

Saturday, July 27, 2013

  Actual Average Record
Temperature  
Mean Temperature 70 °F 62 °F  
Max Temperature 86 °F 81 °F 96 °F (1934)
Min Temperature 53 °F 44 °F 34 °F (1986)
Degree Days  
Heating Degree Days 0 3  
Month to date heating degree days 11 138  
Since 1 June heating degree days 274 505  
Since 1 July heating degree days 11 138  
Cooling Degree Days 5 1  
Month to date cooling degree days 97 12  
Year to date cooling degree days 119 13  
Since 1 June cooling degree days 119 13  
Growing Degree Days 20 (Base 50)    
Moisture  
Dew Point 35 °F    
Average Humidity 40    
Maximum Humidity 72    
Minimum Humidity 7    
Precipitation  
Precipitation 0.00 in 0.02 in 0.19 in (1948)
Month to date precipitation T 0.65  
Year to date precipitation 11.25 12.29  
Sea Level Pressure  
Sea Level Pressure 29.92 in    
Wind  
Wind Speed 5 mph (WNW)    
Max Wind Speed 20 mph    
Max Gust Speed 32 mph    
Visibility 10 miles    
Events      
T = Trace of Precipitation, MM = Missing Value Source: NWS Daily Summary

Daily Weather History Graph

Daily Weather History Graph

Search for Another Location

Airport:

Trip Planner

Search our weather history database for the weather conditions in past years. The results will help you decide how hot, cold, wet, or windy it might be!

Date:

Astronomy

Jul. 27, 2013 Rise Set
Actual Time 6:24 AM MDT 9:16 PM MDT
Civil Twilight 5:50 AM MDT 9:50 PM MDT
Nautical Twilight 5:06 AM MDT 10:33 PM MDT
Astronomical Twilight 4:15 AM MDT 11:24 PM MDT
Moon 11:46 PM MDT (7/27) 12:28 PM MDT (7/27)
Length of Visible Light 15h 59m
Length of Day
14h 51m
Waning Gibbous, 70% of the Moon is Illuminated
Jul 27
Waning Gibbous
Jul 29
Last Quarter
Aug 6
New
Aug 14
First Quarter
Aug 20
Full

Hourly Weather History & Observations

Time (MDT) Temp. Dew Point Humidity Pressure Visibility Wind Dir Wind Speed Gust Speed Precip Events Conditions
12:51 AM 64.0 °F 46.0 °F 52% 29.99 in 10.0 mi North 4.6 mph - N/A   Clear
1:51 AM 60.1 °F 46.0 °F 60% 29.99 in 10.0 mi Calm Calm - N/A   Clear
2:51 AM 60.1 °F 45.0 °F 57% 29.99 in 10.0 mi Calm Calm - N/A   Clear
3:51 AM 62.1 °F 44.1 °F 52% 29.97 in 10.0 mi North 3.5 mph - N/A   Partly Cloudy
4:51 AM 60.1 °F 45.0 °F 57% 29.97 in 10.0 mi Calm Calm - N/A   Mostly Cloudy
5:51 AM 55.0 °F 44.1 °F 67% 29.99 in 10.0 mi Calm Calm - N/A   Clear
6:51 AM 55.0 °F 43.0 °F 64% 30.00 in 10.0 mi Calm Calm - N/A   Scattered Clouds
7:51 AM 55.9 °F 46.0 °F 69% 30.00 in 10.0 mi Calm Calm - N/A   Clear
8:51 AM 64.0 °F 41.0 °F 43% 29.99 in 10.0 mi North 3.5 mph - N/A   Overcast
9:51 AM 66.0 °F 43.0 °F 43% 29.99 in 10.0 mi NW 3.5 mph - N/A   Scattered Clouds
10:51 AM 75.0 °F 39.0 °F 27% 29.95 in 10.0 mi Calm Calm - N/A   Overcast
11:51 AM 77.0 °F 34.0 °F 21% 29.96 in 10.0 mi SW 4.6 mph - N/A   Mostly Cloudy
12:51 PM 82.0 °F 25.0 °F 12% 29.93 in 10.0 mi West 8.1 mph - N/A   Mostly Cloudy
1:51 PM 82.9 °F 24.1 °F 12% 29.92 in 10.0 mi West 6.9 mph - N/A   Clear
2:51 PM 82.0 °F 25.0 °F 12% 29.91 in 10.0 mi West 9.2 mph - N/A   Partly Cloudy
3:51 PM 84.0 °F 28.0 °F 13% 29.87 in 10.0 mi WSW 6.9 mph - N/A   Partly Cloudy
4:51 PM 84.9 °F 27.0 °F 12% 29.85 in 10.0 mi West 13.8 mph 32.2 mph N/A   Clear
5:51 PM 82.9 °F 23.0 °F 11% 29.85 in 10.0 mi WSW 12.7 mph 24.2 mph N/A   Clear
6:51 PM 82.0 °F 14.0 °F 8% 29.83 in 10.0 mi Calm Calm - N/A   Clear
7:51 PM 81.0 °F 27.0 °F 14% 29.83 in 10.0 mi West 6.9 mph - N/A   Clear
8:51 PM 75.9 °F 28.9 °F 18% 29.83 in 10.0 mi West 3.5 mph - N/A   Clear
9:51 PM 72.0 °F 34.0 °F 25% 29.85 in 10.0 mi North 5.8 mph - N/A   Clear
10:51 PM 70.0 °F 37.9 °F 31% 29.84 in 10.0 mi North 10.4 mph - N/A   Clear
11:51 PM 68.0 °F 37.9 °F 33% 29.84 in 10.0 mi NNW 8.1 mph - N/A   Clear